Tekamah, NE

4:57 AM CST on January 18, 2018 (GMT -0600)
Tekamah

Weather History for KTQE - December, 2011

Change the Weather History Date:

Monday, December 19, 2011

  Actual Average Record
Temperature  
Mean Temperature 32 °F -  
Max Temperature 37 °F 34 °F 59 °F (1976)
Min Temperature 26 °F 13 °F -19 °F (1983)
Degree Days  
Heating Degree Days 34    
Moisture  
Dew Point 26 °F    
Average Humidity 79    
Maximum Humidity 100    
Minimum Humidity 62    
Precipitation  
Precipitation 0.02 in - - ()
Sea Level Pressure  
Sea Level Pressure 30.07 in    
Wind  
Wind Speed 9 mph (North)    
Max Wind Speed 25 mph    
Max Gust Speed 36 mph    
Visibility 7 miles    
Events Fog    
Averages and records for this station are not official NWS values.
T = Trace of Precipitation, MM = Missing Value Source: NWS Daily Summary

Daily Weather History Graph

Daily Weather History Graph

Search for Another Location

Airport or City:

Trip Planner

Search our weather history database for the weather conditions in past years. The results will help you decide how hot, cold, wet, or windy it might be!

Date:

Astronomy

Dec. 19, 2011 Rise Set
Actual Time 7:47 AM CST 4:56 PM CST
Civil Twilight 7:15 AM CST 5:27 PM CST
Nautical Twilight 6:40 AM CST 6:02 PM CST
Astronomical Twilight 6:06 AM CST 6:36 PM CST
Moon 1:55 AM CST (12/19) 12:58 PM CST (12/19)
Length of Visible Light 10h 12m
Length of Day
9h 08m
Waning Crescent, 31% of the Moon is Illuminated
Dec 19
Waning Crescent
Dec 24
New
Jan 1
First Quarter
Jan 9
Full
Jan 16
Last Quarter

Hourly Weather History & Observations

Time (CST) Temp. Windchill Dew Point Humidity Pressure Visibility Wind Dir Wind Speed Gust Speed Precip Events Conditions
12:54 AM 28.9 °F - 28.0 °F 96% 29.82 in 2.5 mi Calm Calm - N/A   Clear
1:32 AM 28.4 °F 24.6 °F 28.4 °F 100% 29.82 in 1.8 mi West 3.5 mph - N/A   Clear
1:52 AM 28.4 °F - 26.6 °F 93% 29.83 in 0.2 mi Calm Calm - N/A Fog Light Freezing Fog
1:54 AM 28.9 °F - 27.0 °F 92% 29.84 in 0.2 mi Calm Calm - N/A Fog Light Freezing Fog
2:50 AM 26.6 °F 21.2 °F 24.8 °F 93% 29.85 in 2.0 mi West 4.6 mph - N/A   Clear
2:54 AM 27.0 °F 23.0 °F 25.0 °F 92% 29.86 in 2.0 mi West 3.5 mph - N/A   Clear
3:54 AM 28.0 °F 18.6 °F 26.1 °F 92% 29.89 in 2.5 mi NNW 10.4 mph - N/A   Clear
4:03 AM 28.4 °F 19.1 °F 26.6 °F 93% 29.89 in 3.0 mi NNW 10.4 mph - N/A   Clear
4:14 AM 28.4 °F 19.1 °F 26.6 °F 93% 29.90 in 2.5 mi North 10.4 mph - N/A   Clear
4:26 AM 30.2 °F 19.8 °F 28.4 °F 93% 29.90 in 3.0 mi North 13.8 mph - N/A   Clear
4:54 AM 30.9 °F 20.7 °F 28.9 °F 92% 29.94 in 4.0 mi North 13.8 mph - N/A   Clear
5:54 AM 34.0 °F 23.0 °F 28.9 °F 82% 29.99 in 7.0 mi North 18.4 mph - N/A   Clear
6:54 AM 33.1 °F 20.3 °F 28.9 °F 85% 30.04 in 9.0 mi North 24.2 mph - N/A   Clear
7:54 AM 32.0 °F 19.8 °F 27.0 °F 82% 30.11 in 10.0 mi North 20.7 mph - 0.01 in   Partly Cloudy
8:54 AM 30.9 °F 18.1 °F 25.0 °F 79% 30.16 in 10.0 mi North 21.9 mph - N/A   Clear
9:54 AM 33.1 °F 20.1 °F 25.0 °F 72% 30.21 in 10.0 mi North 25.3 mph 35.7 mph 0.01 in   Clear
10:54 AM 35.1 °F 23.0 °F 25.0 °F 67% 30.23 in 10.0 mi North 24.2 mph 34.5 mph N/A   Clear
11:54 AM 35.1 °F 24.1 °F 25.0 °F 67% 30.23 in 10.0 mi North 19.6 mph 28.8 mph N/A   Clear
12:54 PM 36.0 °F 25.0 °F 25.0 °F 64% 30.20 in 10.0 mi North 20.7 mph - N/A   Clear
1:54 PM 37.0 °F 26.4 °F 25.0 °F 62% 30.19 in 10.0 mi North 20.7 mph 27.6 mph N/A   Clear
2:54 PM 37.0 °F 27.4 °F 25.0 °F 62% 30.19 in 10.0 mi North 17.3 mph - N/A   Clear
3:54 PM 36.0 °F 28.0 °F 25.0 °F 64% 30.24 in 10.0 mi North 11.5 mph - N/A   Clear
4:54 PM 35.1 °F 26.4 °F 25.0 °F 67% 30.25 in 10.0 mi North 12.7 mph - N/A   Clear
5:54 PM 35.1 °F 27.4 °F 25.0 °F 67% 30.25 in 10.0 mi North 10.4 mph - N/A   Clear
7:54 PM 33.1 °F 25.5 °F 25.0 °F 72% 30.28 in 10.0 mi North 9.2 mph - N/A   Clear
8:54 PM 33.1 °F 23.9 °F 25.0 °F 72% 30.25 in 10.0 mi NNE 12.7 mph - N/A   Clear
9:54 PM 32.0 °F 22.1 °F 23.0 °F 69% 30.26 in 10.0 mi NNE 13.8 mph - N/A   Clear
10:54 PM 30.9 °F 20.7 °F 21.0 °F 67% 30.25 in 10.0 mi NNE 13.8 mph - N/A   Clear
11:54 PM 30.0 °F 21.7 °F 21.9 °F 72% 30.27 in 10.0 mi North 9.2 mph - N/A   Clear